Year,Month,Day,Hour,Minute,Value (Times are PST for temperature in C)
2013,01,20,11,09,2.60
2013,01,20,11,10,2.70
2013,01,20,11,11,2.70
2013,01,20,11,12,2.80
2013,01,20,11,13,2.90
2013,01,20,11,14,2.90
2013,01,20,11,15,3.00
2013,01,20,11,16,3.10
2013,01,20,11,17,3.20
2013,01,20,11,18,3.40
2013,01,20,11,19,3.50
2013,01,20,11,20,3.60
2013,01,20,11,21,3.70
2013,01,20,11,22,3.80
2013,01,20,11,23,3.90
2013,01,20,11,24,4.00
2013,01,20,11,25,4.20
2013,01,20,11,26,4.20
2013,01,20,11,27,4.30
2013,01,20,11,28,4.40
2013,01,20,11,29,4.50
2013,01,20,11,30,4.60
2013,01,20,11,31,4.70
2013,01,20,11,32,4.80
2013,01,20,11,33,4.80
2013,01,20,11,34,4.90
2013,01,20,11,35,5.00
2013,01,20,11,36,5.00
2013,01,20,11,37,5.10
2013,01,20,11,38,5.20
2013,01,20,11,39,5.30
2013,01,20,11,40,5.30
2013,01,20,11,41,5.40
2013,01,20,11,42,5.40
2013,01,20,11,43,5.50
2013,01,20,11,44,5.50
2013,01,20,11,45,5.50
2013,01,20,11,46,5.60
2013,01,20,11,47,5.60
2013,01,20,11,48,5.60
2013,01,20,11,49,5.60
2013,01,20,11,50,5.60
2013,01,20,11,51,5.60
2013,01,20,11,52,5.60
2013,01,20,11,53,5.60
2013,01,20,11,54,5.60
2013,01,20,11,55,5.70
2013,01,20,11,56,5.70
2013,01,20,11,57,5.70
2013,01,20,11,58,5.70
2013,01,20,11,59,5.80
2013,01,20,12,00,5.80
2013,01,20,12,01,5.80
2013,01,20,12,02,5.90
2013,01,20,12,03,5.90
2013,01,20,12,04,5.90
2013,01,20,12,05,6.00
2013,01,20,12,06,6.00
2013,01,20,12,07,6.10
2013,01,20,12,08,6.10
2013,01,20,12,09,6.10
2013,01,20,12,10,6.20
2013,01,20,12,11,6.20
2013,01,20,12,12,6.30
2013,01,20,12,13,6.30
2013,01,20,12,14,6.30
2013,01,20,12,15,6.40
2013,01,20,12,16,6.50
2013,01,20,12,17,6.50
2013,01,20,12,18,6.60
2013,01,20,12,19,6.60
2013,01,20,12,20,6.70
2013,01,20,12,21,6.70
2013,01,20,12,22,6.70
2013,01,20,12,23,6.80
2013,01,20,12,24,6.80
2013,01,20,12,25,6.80
2013,01,20,12,26,6.80
2013,01,20,12,27,6.80
2013,01,20,12,28,6.80
2013,01,20,12,29,6.80
2013,01,20,12,30,6.80
2013,01,20,12,31,6.80
2013,01,20,12,32,6.80
2013,01,20,12,33,6.80
2013,01,20,12,34,6.80
2013,01,20,12,35,6.80
2013,01,20,12,36,6.80
2013,01,20,12,37,6.90
2013,01,20,12,38,6.80
2013,01,20,12,39,6.80
2013,01,20,12,40,6.80
2013,01,20,12,41,6.80
2013,01,20,12,42,6.80
2013,01,20,12,43,6.80
2013,01,20,12,44,6.80
2013,01,20,12,45,6.80
2013,01,20,12,46,6.80
2013,01,20,12,47,6.80
2013,01,20,12,48,6.90
2013,01,20,12,49,6.90
2013,01,20,12,50,6.90
2013,01,20,12,51,6.90
2013,01,20,12,52,6.90
2013,01,20,12,53,6.90
2013,01,20,12,54,7.00
2013,01,20,12,55,7.00
2013,01,20,12,56,7.00
2013,01,20,12,57,7.00
2013,01,20,12,58,7.10
2013,01,20,12,59,7.10
2013,01,20,13,00,7.10
2013,01,20,13,01,7.10
2013,01,20,13,02,7.10
2013,01,20,13,03,7.20
2013,01,20,13,04,7.20
2013,01,20,13,05,7.20
2013,01,20,13,06,7.20
2013,01,20,13,07,7.30
2013,01,20,13,08,7.30
2013,01,20,13,09,7.30
2013,01,20,13,10,7.40
2013,01,20,13,11,7.40
2013,01,20,13,12,7.40
2013,01,20,13,13,7.50
2013,01,20,13,14,7.50
2013,01,20,13,15,7.50
2013,01,20,13,16,7.60
2013,01,20,13,17,7.60
2013,01,20,13,18,7.60
2013,01,20,13,19,7.70
2013,01,20,13,20,7.70
2013,01,20,13,21,7.80
2013,01,20,13,22,7.80
2013,01,20,13,23,7.90
2013,01,20,13,24,8.00
2013,01,20,13,25,8.10
2013,01,20,13,26,8.10
2013,01,20,13,27,8.20
2013,01,20,13,28,8.30
2013,01,20,13,29,8.30
2013,01,20,13,30,8.30
2013,01,20,13,31,8.40
2013,01,20,13,32,8.40
2013,01,20,13,33,8.40
2013,01,20,13,34,8.40
2013,01,20,13,35,8.40
2013,01,20,13,36,8.50
2013,01,20,13,37,8.50
2013,01,20,13,38,8.50
2013,01,20,13,39,8.50
2013,01,20,13,40,8.60
2013,01,20,13,41,8.60
2013,01,20,13,42,8.60
2013,01,20,13,43,8.70
2013,01,20,13,44,8.70
2013,01,20,13,45,8.70
2013,01,20,13,46,8.70
2013,01,20,13,47,8.80
2013,01,20,13,48,8.80
2013,01,20,13,49,8.80
2013,01,20,13,50,8.80
2013,01,20,13,51,8.80
2013,01,20,13,52,8.80
2013,01,20,13,53,8.90
2013,01,20,13,54,8.90
2013,01,20,13,55,8.90
2013,01,20,13,56,8.90
2013,01,20,13,57,8.90
2013,01,20,13,58,9.00
2013,01,20,13,59,9.00
2013,01,20,14,00,9.00
2013,01,20,14,01,9.10
2013,01,20,14,02,9.10
2013,01,20,14,03,9.10
2013,01,20,14,04,9.10
2013,01,20,14,05,9.10
2013,01,20,14,06,9.20
2013,01,20,14,07,9.20
2013,01,20,14,08,9.20
2013,01,20,14,09,9.20
2013,01,20,14,10,9.20
2013,01,20,14,11,9.20
2013,01,20,14,12,9.30
2013,01,20,14,13,9.30
2013,01,20,14,14,9.30
2013,01,20,14,15,9.30
2013,01,20,14,16,9.30
2013,01,20,14,17,9.30
2013,01,20,14,18,9.30
2013,01,20,14,19,9.40
2013,01,20,14,20,9.40
2013,01,20,14,21,9.40
2013,01,20,14,22,9.40
2013,01,20,14,23,9.50
2013,01,20,14,24,9.50
2013,01,20,14,25,9.50
2013,01,20,14,26,9.50
2013,01,20,14,27,9.40
2013,01,20,14,28,9.40
2013,01,20,14,29,9.40
2013,01,20,14,30,9.40
2013,01,20,14,31,9.40
2013,01,20,14,32,9.40
2013,01,20,14,33,9.40
2013,01,20,14,34,9.40
2013,01,20,14,35,9.40
2013,01,20,14,36,9.40
2013,01,20,14,37,9.40
2013,01,20,14,38,9.50
2013,01,20,14,39,9.40
2013,01,20,14,40,9.40
2013,01,20,14,41,9.40
2013,01,20,14,42,9.40
2013,01,20,14,43,9.40
2013,01,20,14,44,9.40
2013,01,20,14,45,9.40
2013,01,20,14,46,9.40
2013,01,20,14,47,9.40
2013,01,20,14,48,9.40
2013,01,20,14,49,9.30
2013,01,20,14,50,9.40
2013,01,20,14,51,9.30
2013,01,20,14,52,9.30
2013,01,20,14,53,9.30
2013,01,20,14,54,9.30
2013,01,20,14,55,9.30
2013,01,20,14,56,9.40
2013,01,20,14,57,9.40
2013,01,20,14,58,9.40
2013,01,20,14,59,9.40
2013,01,20,15,00,9.30
2013,01,20,15,01,9.30
2013,01,20,15,02,9.30
2013,01,20,15,03,9.30
2013,01,20,15,04,9.30
2013,01,20,15,05,9.30
2013,01,20,15,06,9.30
2013,01,20,15,07,9.20
2013,01,20,15,08,9.20
2013,01,20,15,09,9.20
2013,01,20,15,10,9.20
2013,01,20,15,11,9.20
2013,01,20,15,12,9.20
2013,01,20,15,13,9.10
2013,01,20,15,14,9.10
2013,01,20,15,15,9.10
2013,01,20,15,16,9.10
2013,01,20,15,17,9.00
2013,01,20,15,18,9.00
2013,01,20,15,19,9.00
2013,01,20,15,20,8.90
2013,01,20,15,21,8.90
2013,01,20,15,22,8.90
2013,01,20,15,23,8.90
2013,01,20,15,24,8.90
2013,01,20,15,25,8.80
2013,01,20,15,26,8.80
2013,01,20,15,27,8.80
2013,01,20,15,28,8.80
2013,01,20,15,29,8.80
2013,01,20,15,30,8.80
2013,01,20,15,31,8.80
2013,01,20,15,32,8.80
2013,01,20,15,33,8.70
2013,01,20,15,34,8.70
2013,01,20,15,35,8.70
2013,01,20,15,36,8.70
2013,01,20,15,37,8.70
2013,01,20,15,38,8.70
2013,01,20,15,39,8.70
2013,01,20,15,40,8.60
2013,01,20,15,41,8.60
2013,01,20,15,42,8.60
2013,01,20,15,43,8.60
2013,01,20,15,44,8.50
2013,01,20,15,45,8.50
2013,01,20,15,46,8.50
2013,01,20,15,47,8.50
2013,01,20,15,48,8.40
2013,01,20,15,49,8.40
2013,01,20,15,50,8.40
2013,01,20,15,51,8.40
2013,01,20,15,52,8.30
2013,01,20,15,53,8.30
2013,01,20,15,54,8.30
2013,01,20,15,55,8.30
2013,01,20,15,56,8.30
2013,01,20,15,57,8.30
2013,01,20,15,58,8.20
2013,01,20,15,59,8.20
2013,01,20,16,00,8.20
2013,01,20,16,01,8.10
2013,01,20,16,02,8.10
2013,01,20,16,03,8.00
2013,01,20,16,04,8.00
2013,01,20,16,05,7.90
2013,01,20,16,06,7.90
2013,01,20,16,07,7.80
2013,01,20,16,08,7.80
2013,01,20,16,09,7.70
2013,01,20,16,10,7.70
2013,01,20,16,11,7.60
2013,01,20,16,12,7.60
2013,01,20,16,13,7.50
2013,01,20,16,14,7.50
2013,01,20,16,15,7.40
2013,01,20,16,16,7.30
2013,01,20,16,17,7.30
2013,01,20,16,18,7.20
2013,01,20,16,19,7.20
2013,01,20,16,20,7.10
2013,01,20,16,21,7.10
2013,01,20,16,22,7.00
2013,01,20,16,23,6.90
2013,01,20,16,24,6.90
2013,01,20,16,25,6.80
2013,01,20,16,26,6.80
2013,01,20,16,27,6.70
2013,01,20,16,28,6.70
2013,01,20,16,29,6.60
2013,01,20,16,30,6.60
2013,01,20,16,31,6.60
2013,01,20,16,32,6.50
2013,01,20,16,33,6.50
2013,01,20,16,34,6.40
2013,01,20,16,35,6.40
2013,01,20,16,36,6.40
2013,01,20,16,37,6.30
2013,01,20,16,38,6.30
2013,01,20,16,39,6.30
2013,01,20,16,40,6.30
2013,01,20,16,41,6.20
2013,01,20,16,42,6.20
2013,01,20,16,43,6.20
2013,01,20,16,44,6.10
2013,01,20,16,45,6.10
2013,01,20,16,46,6.10
2013,01,20,16,47,6.00
2013,01,20,16,48,6.00
2013,01,20,16,49,5.90
2013,01,20,16,50,5.90
2013,01,20,16,51,5.90
2013,01,20,16,52,5.80
2013,01,20,16,53,5.80
2013,01,20,16,54,5.80
2013,01,20,16,55,5.70
2013,01,20,16,56,5.70
2013,01,20,16,57,5.70
2013,01,20,16,58,5.60
2013,01,20,16,59,5.60
2013,01,20,17,00,5.60
2013,01,20,17,01,5.50
2013,01,20,17,02,5.50
2013,01,20,17,03,5.40
2013,01,20,17,04,5.40
2013,01,20,17,05,5.40
2013,01,20,17,06,5.30
2013,01,20,17,07,5.30
2013,01,20,17,08,5.30
2013,01,20,17,09,5.20
2013,01,20,17,10,5.20
2013,01,20,17,11,5.10
2013,01,20,17,12,5.10
2013,01,20,17,13,5.10
2013,01,20,17,14,5.00
2013,01,20,17,15,5.00
2013,01,20,17,16,4.90
2013,01,20,17,17,4.90
2013,01,20,17,18,4.80
2013,01,20,17,19,4.80
2013,01,20,17,20,4.80
2013,01,20,17,21,4.70
2013,01,20,17,22,4.70
2013,01,20,17,23,4.70
2013,01,20,17,24,4.60
2013,01,20,17,25,4.60
2013,01,20,17,26,4.50
2013,01,20,17,27,4.50
2013,01,20,17,28,4.50
2013,01,20,17,29,4.40
2013,01,20,17,30,4.40
2013,01,20,17,31,4.30
2013,01,20,17,32,4.30
2013,01,20,17,33,4.30
2013,01,20,17,34,4.30
2013,01,20,17,35,4.20
2013,01,20,17,36,4.20
2013,01,20,17,37,4.20
2013,01,20,17,38,4.10
2013,01,20,17,39,4.10
2013,01,20,17,40,4.10
2013,01,20,17,41,4.00
2013,01,20,17,42,4.00
2013,01,20,17,43,3.90
2013,01,20,17,44,3.90
2013,01,20,17,45,3.80
2013,01,20,17,46,3.80
2013,01,20,17,47,3.80
2013,01,20,17,48,3.70
2013,01,20,17,49,3.70
2013,01,20,17,50,3.70
2013,01,20,17,51,3.70
2013,01,20,17,52,3.60
2013,01,20,17,53,3.60
2013,01,20,17,54,3.60
2013,01,20,17,55,3.60
2013,01,20,17,56,3.50
2013,01,20,17,57,3.50
2013,01,20,17,58,3.40
2013,01,20,17,59,3.40
2013,01,20,18,00,3.40
2013,01,20,18,01,3.30
2013,01,20,18,02,3.30
2013,01,20,18,03,3.30
2013,01,20,18,04,3.30
2013,01,20,18,05,3.20
2013,01,20,18,06,3.20
2013,01,20,18,07,3.20
2013,01,20,18,08,3.10
2013,01,20,18,09,3.10
2013,01,20,18,10,3.00
2013,01,20,18,11,3.00
2013,01,20,18,12,3.00
2013,01,20,18,13,2.90
2013,01,20,18,14,2.90
2013,01,20,18,15,2.90
2013,01,20,18,16,2.90
2013,01,20,18,17,2.80
2013,01,20,18,18,2.80
2013,01,20,18,19,2.80
2013,01,20,18,20,2.80
2013,01,20,18,21,2.70
2013,01,20,18,22,2.70
2013,01,20,18,23,2.70
2013,01,20,18,24,2.70
2013,01,20,18,25,2.60
2013,01,20,18,26,2.60
2013,01,20,18,27,2.60
2013,01,20,18,28,2.60
2013,01,20,18,29,2.50
2013,01,20,18,30,2.50
2013,01,20,18,31,2.50
2013,01,20,18,32,2.50
2013,01,20,18,33,2.50
2013,01,20,18,34,2.60
2013,01,20,18,35,2.60
2013,01,20,18,36,2.60
2013,01,20,18,37,2.60
2013,01,20,18,38,2.60
2013,01,20,18,39,2.60
2013,01,20,18,40,2.60
2013,01,20,18,41,2.60
2013,01,20,18,42,2.60
2013,01,20,18,43,2.60
2013,01,20,18,44,2.60
2013,01,20,18,45,2.60
2013,01,20,18,46,2.60
2013,01,20,18,47,2.50
2013,01,20,18,48,2.50
2013,01,20,18,49,2.50
2013,01,20,18,50,2.40
2013,01,20,18,51,2.40
2013,01,20,18,52,2.40
2013,01,20,18,53,2.40
2013,01,20,18,54,2.40
2013,01,20,18,55,2.30
2013,01,20,18,56,2.30
2013,01,20,18,57,2.30
2013,01,20,18,58,2.20
2013,01,20,18,59,2.20
2013,01,20,19,00,2.10
2013,01,20,19,01,2.10
2013,01,20,19,02,2.10
2013,01,20,19,03,2.00
2013,01,20,19,04,2.00
2013,01,20,19,05,1.90
2013,01,20,19,06,1.90
2013,01,20,19,07,1.90
2013,01,20,19,08,1.80
2013,01,20,19,09,1.80
2013,01,20,19,10,1.80
2013,01,20,19,11,1.70
2013,01,20,19,12,1.70
2013,01,20,19,13,1.70
2013,01,20,19,14,1.70
2013,01,20,19,15,1.70
2013,01,20,19,16,1.70
2013,01,20,19,17,1.70
2013,01,20,19,18,1.70
2013,01,20,19,19,1.70
2013,01,20,19,20,1.70
2013,01,20,19,21,1.70
2013,01,20,19,22,1.70
2013,01,20,19,23,1.70
2013,01,20,19,24,1.70
2013,01,20,19,25,1.70
2013,01,20,19,26,1.70
2013,01,20,19,27,1.70
2013,01,20,19,28,1.70
2013,01,20,19,29,1.70
2013,01,20,19,30,1.60
2013,01,20,19,31,1.60
2013,01,20,19,32,1.60
2013,01,20,19,33,1.60
2013,01,20,19,34,1.50
2013,01,20,19,35,1.50
2013,01,20,19,36,1.40
2013,01,20,19,37,1.40
2013,01,20,19,38,1.40
2013,01,20,19,39,1.30
2013,01,20,19,40,1.30
2013,01,20,19,41,1.30
2013,01,20,19,42,1.40
2013,01,20,19,43,1.40
2013,01,20,19,44,1.50
2013,01,20,19,45,1.50
2013,01,20,19,46,1.50
2013,01,20,19,47,1.60
2013,01,20,19,48,1.60
2013,01,20,19,49,1.60
2013,01,20,19,50,1.60
2013,01,20,19,51,1.60
2013,01,20,19,52,1.60
2013,01,20,19,53,1.60
2013,01,20,19,54,1.50
2013,01,20,19,55,1.50
2013,01,20,19,56,1.40
2013,01,20,19,57,1.40
2013,01,20,19,58,1.40
2013,01,20,19,59,1.30
2013,01,20,20,00,1.30
2013,01,20,20,01,1.30
2013,01,20,20,02,1.20
2013,01,20,20,03,1.20
2013,01,20,20,04,1.20
2013,01,20,20,05,1.10
2013,01,20,20,06,1.10
2013,01,20,20,07,1.10
2013,01,20,20,08,1.10
2013,01,20,20,09,1.00
2013,01,20,20,10,1.00
2013,01,20,20,11,0.90
2013,01,20,20,12,0.90
2013,01,20,20,13,0.90
2013,01,20,20,14,0.90
2013,01,20,20,15,0.90
2013,01,20,20,16,0.80
2013,01,20,20,17,0.80
2013,01,20,20,18,0.80
2013,01,20,20,19,0.80
2013,01,20,20,20,0.70
2013,01,20,20,21,0.70
2013,01,20,20,22,0.70
2013,01,20,20,23,0.70
2013,01,20,20,24,0.60
2013,01,20,20,25,0.60
2013,01,20,20,26,0.60
2013,01,20,20,27,0.60
2013,01,20,20,28,0.60
2013,01,20,20,29,0.60
2013,01,20,20,30,0.60
2013,01,20,20,31,0.50
2013,01,20,20,32,0.50
2013,01,20,20,33,0.50
2013,01,20,20,34,0.50
2013,01,20,20,35,0.50
2013,01,20,20,36,0.50
2013,01,20,20,37,0.50
2013,01,20,20,38,0.50
2013,01,20,20,39,0.40
2013,01,20,20,40,0.40
2013,01,20,20,41,0.40
2013,01,20,20,42,0.40
2013,01,20,20,43,0.40
2013,01,20,20,44,0.30
2013,01,20,20,45,0.30
2013,01,20,20,46,0.30
2013,01,20,20,47,0.30
2013,01,20,20,48,0.30
2013,01,20,20,49,0.20
2013,01,20,20,50,0.20
2013,01,20,20,51,0.20
2013,01,20,20,52,0.20
2013,01,20,20,53,0.10
2013,01,20,20,54,0.10
2013,01,20,20,55,0.10
2013,01,20,20,56,0.10
2013,01,20,20,57,0.10
2013,01,20,20,58,0.00
2013,01,20,20,59,0.00
2013,01,20,21,00,0.00
2013,01,20,21,01,-0.10
2013,01,20,21,02,-0.10
2013,01,20,21,03,-0.10
2013,01,20,21,04,-0.10
2013,01,20,21,05,-0.20
2013,01,20,21,06,-0.20
2013,01,20,21,07,-0.20
2013,01,20,21,08,-0.20
2013,01,20,21,09,-0.30
2013,01,20,21,10,-0.30
2013,01,20,21,11,-0.30
2013,01,20,21,12,-0.30
2013,01,20,21,13,-0.30
2013,01,20,21,14,-0.30
2013,01,20,21,15,-0.40
2013,01,20,21,16,-0.40
2013,01,20,21,17,-0.40
2013,01,20,21,18,-0.40
2013,01,20,21,19,-0.40
2013,01,20,21,20,-0.50
2013,01,20,21,21,-0.50
2013,01,20,21,22,-0.50
2013,01,20,21,23,-0.50
2013,01,20,21,24,-0.50
2013,01,20,21,25,-0.60
2013,01,20,21,26,-0.60
2013,01,20,21,27,-0.60
2013,01,20,21,28,-0.60
2013,01,20,21,29,-0.60
2013,01,20,21,30,-0.60
2013,01,20,21,31,-0.60
2013,01,20,21,32,-0.70
2013,01,20,21,33,-0.70
2013,01,20,21,34,-0.70
2013,01,20,21,35,-0.70
2013,01,20,21,36,-0.70
2013,01,20,21,37,-0.70
2013,01,20,21,38,-0.70
2013,01,20,21,39,-0.70
2013,01,20,21,40,-0.70
2013,01,20,21,41,-0.70
2013,01,20,21,42,-0.70
2013,01,20,21,43,-0.70
2013,01,20,21,44,-0.70
2013,01,20,21,45,-0.70
2013,01,20,21,46,-0.70
2013,01,20,21,47,-0.70
2013,01,20,21,48,-0.70
2013,01,20,21,49,-0.70
2013,01,20,21,50,-0.70
2013,01,20,21,51,-0.70
2013,01,20,21,52,-0.60
2013,01,20,21,53,-0.60
2013,01,20,21,54,-0.60
2013,01,20,21,55,-0.60
2013,01,20,21,56,-0.60
2013,01,20,21,57,-0.60
2013,01,20,21,58,-0.60
2013,01,20,21,59,-0.60
2013,01,20,22,00,-0.60
2013,01,20,22,01,-0.50
2013,01,20,22,02,-0.50
2013,01,20,22,03,-0.50
2013,01,20,22,04,-0.50
2013,01,20,22,05,-0.40
2013,01,20,22,06,-0.40
2013,01,20,22,07,-0.40
2013,01,20,22,08,-0.40
2013,01,20,22,09,-0.40
2013,01,20,22,10,-0.40
2013,01,20,22,11,-0.40
2013,01,20,22,12,-0.40
2013,01,20,22,13,-0.40
2013,01,20,22,14,-0.40
2013,01,20,22,15,-0.40
2013,01,20,22,16,-0.40
2013,01,20,22,17,-0.40
2013,01,20,22,18,-0.40
2013,01,20,22,19,-0.40
2013,01,20,22,20,-0.40
2013,01,20,22,21,-0.50
2013,01,20,22,22,-0.50
2013,01,20,22,23,-0.50
2013,01,20,22,24,-0.50
2013,01,20,22,25,-0.60
2013,01,20,22,26,-0.60
2013,01,20,22,27,-0.60
2013,01,20,22,28,-0.60
2013,01,20,22,29,-0.60
2013,01,20,22,30,-0.60
2013,01,20,22,31,-0.60
2013,01,20,22,32,-0.60
2013,01,20,22,33,-0.60
2013,01,20,22,34,-0.60
2013,01,20,22,35,-0.50
2013,01,20,22,36,-0.50
2013,01,20,22,37,-0.50
2013,01,20,22,38,-0.50
2013,01,20,22,39,-0.50
2013,01,20,22,40,-0.50
2013,01,20,22,41,-0.50
2013,01,20,22,42,-0.50
2013,01,20,22,43,-0.50
2013,01,20,22,44,-0.60
2013,01,20,22,45,-0.60
2013,01,20,22,46,-0.60
2013,01,20,22,47,-0.60
2013,01,20,22,48,-0.60
2013,01,20,22,49,-0.60
2013,01,20,22,50,-0.60
2013,01,20,22,51,-0.70
2013,01,20,22,52,-0.70
2013,01,20,22,53,-0.70
2013,01,20,22,54,-0.70
2013,01,20,22,55,-0.70
2013,01,20,22,56,-0.70
2013,01,20,22,57,-0.70
2013,01,20,22,58,-0.70
2013,01,20,22,59,-0.80
2013,01,20,23,00,-0.80
2013,01,20,23,01,-0.80
2013,01,20,23,02,-0.80
2013,01,20,23,03,-0.80
2013,01,20,23,04,-0.80
2013,01,20,23,05,-0.80
2013,01,20,23,06,-0.80
2013,01,20,23,07,-0.90
2013,01,20,23,08,-0.90
2013,01,20,23,09,-0.90
2013,01,20,23,10,-0.90
2013,01,20,23,11,-0.90
2013,01,20,23,12,-0.90
2013,01,20,23,13,-0.90
2013,01,20,23,14,-0.90
2013,01,20,23,15,-0.90
2013,01,20,23,16,-0.90
2013,01,20,23,17,-0.90
2013,01,20,23,18,-0.90
2013,01,20,23,19,-0.90
2013,01,20,23,20,-0.90
2013,01,20,23,21,-0.90
2013,01,20,23,22,-0.90
2013,01,20,23,23,-0.90
2013,01,20,23,24,-0.90
